Location: Sungai Jaoh
(2.9167°N, 113.9167°E)
Time: 07:16:04
(UTC+00:00)

Cosmos 1461 - Pass Details

Date: 30 November 2020
Orbit: 500 x 664 km, 65.0° (Epoch: 16 January)

Event Time Altitude Azimuth Distance (km) Brightness Sun altitude
Exits shadow 21:39:26 -1° 341° (NNW) 2,947 6.1 -8.9°
Rises 21:39:37 0° 341° (NNW) 2,876 6.1 -8.9°
Reaches altitude 10° 21:41:56 10° 343° (NNW) 1,947 5.3 -8.4°
Maximum altitude 21:46:19 74° 68° (ENE) 609 3.2 -7.4°
Drops below altitude 10° 21:50:28 10° 153° (SSE) 1,849 6.3 -6.4°
Sets 21:52:37 0° 155° (SSE) 2,719 7.2 -5.9°
